sat.trackr.live / text

‹ back to catalog

STARLINK-11271 [DTC]

NORAD 60915 · 2024-154N

PAYLOAD ACTIVE UNKNOWN

§ Identity

Operator
Country
US
Launch date
2024-08-31
Launch site
AFETR
Launch vehicle
Mass (kg)
RCS (m²)

Purposes: comms

External: N2YO · Heavens-Above · Gunter

§ Orbital elements

Epoch: 2026-05-25T04:45:16.456896Z

Period
91.74 min
Inclination
53.1586°
Eccentricity
0.0001046
Mean motion
15.69698594 rev/d
Perigee alt
359.1 km
Apogee alt
360.5 km
Semi-major
6,737.9 km
B*
4.1544e-6
RAAN
113.9013°
Arg perigee
69.2921°
Mean anomaly
290.8209°
Rev number
10,052

§ Raw data

STARLINK-11271 [DTC]1 60915U 24154N   26145.19810714 -.00000085  00000+0  41544-5 0  99922 60915  53.1586 113.9013 0001046  69.2921 290.8209 15.69698594100529

JSON: /api/v1/satellites/60915 · /tle

For live sub-satellite position, see the globe view (requires WebGL).

§ Visibility from observer

Set your observer location to see the next 7 days of passes ≥ 10°. The values pass through the URL so the page stays shareable.

No JS? Fill the form by hand. The geolocation button needs JavaScript.